Weather in Nechkino

Russia / Udmurt Republic     56°38′56″N   53°45′38″E
temp.,
°C
wind,
m/s
gust,
m/s
humid.,
%
clouds,
%
prec.,
mm/h
press.,
hPa
HPBL,
m
20 september, mon
mon2001:00+4nnw255796 0.0 1025170
04:00+1nnw247411 0.0 102674
07:00+1nw22707 0.0 102730
10:00+6nne3456100 0.0 1028967
13:00+8n3447100 0.0 10281293
16:00+9nne344630 0.0 10281448
19:00+4ne387111 0.0 1029204
22:00+2ene388319 0.0 1030186
21 september, tue
tue2101:00+1e23895 0.0 103044
04:000ene22905 0.0 103034
07:000ene25875 0.0 1030113
10:00+6e34595 0.0 1029682
13:00+10e23475 0.0 10271107
16:00+11e23455 0.0 10261185
19:00+5e22680 0.0 102510
22:00+3ene22770 0.0 102514
22 september, wed
wed2201:00+2ene22830 0.0 102524
04:00+1ene22870 0.0 102529
07:00+1ene25880 0.0 102595
10:00+8ene45582 0.0 1024492
13:00+12e34455 0.0 1024957
16:00+13e44430 0.0 10231011
19:00+7e22650 0.0 102437
22:00+5e36723 0.0 1025105
23 september, thu
thu2301:00+4e27855 0.0 1025118
04:00+3e37866 0.0 1025138
07:00+5ese3971100 0.0 1025243
10:00+8ese4106296 0.0 1025312
13:00+13se5847100 0.0 1024540
16:00+12se4957100 0.0 1024375
19:00+10se3964100 0.0 1024239
22:00+11sse31161100 0.0 1023281
24 september, fri
fri2401:00+9s3874100 0.1 1024319
04:00+9sse41392100 1.1 1024679
07:00+9sse51188100 0.0 1023427
10:00+11sse51276100 0.0 1022613
13:00+11sse41164100 0.0 1022552
16:00+11se51255100 0.0 1020706
19:00+10sse31065100 0.3 1020572
22:00+11se41259100 0.4 1018451